GFSNW_prec_precacc12_192.txt.gz
Total_Precipitation_Accumulation
0.07 0.08 0.12 0.16 0.24 0.38 0.44 0.50 0.54 0.08 0.07 0.23 0.66 0.77 0.53 0.32 0.20 0.17 0.47 0.58 0.45 0.35 0.27 0.46 0.42 0.39 0.28 0.25 0.24 0.30 0.43 0.68 0.49 0.20 0.12 0.07 0.05 0.07 0.10 0.13 0.13 0.14 0.14 0.10
0.02 0.02 0.04 0.13 0.27 0.51 0.54 0.57 0.28 0.06 0.24 0.41 0.18 0.10 0.16 0.28 0.33 0.27 0.59 0.70 0.58 0.45 0.36 0.42 0.25 0.22 0.19 0.24 0.43 0.54 0.51 0.84 0.88 0.61 0.61 0.52 0.31 0.22 0.32 0.43 0.43 0.40 0.48 0.44
0.03 0.03 0.03 0.06 0.16 0.39 0.58 0.62 0.36 0.15 0.24 0.23 0.13 0.15 0.18 0.20 0.18 0.20 0.30 0.59 0.51 0.47 0.31 0.20 0.31 0.08 0.01 0.02 0.10 0.18 0.41 0.75 0.56 0.41 0.35 0.46 0.62 0.59 0.60 0.77 0.90 0.63 0.50 0.34
0.04 0.05 0.06 0.08 0.14 0.27 0.49 0.61 0.35 0.11 0.14 0.12 0.08 0.14 0.17 0.05 0.05 0.12 0.09 0.18 0.27 0.41 0.49 0.29 0.22 0.12 0.04 0.01 0.01 0.05 0.23 0.56 0.36 0.28 0.26 0.22 0.18 0.13 0.17 0.35 0.49 0.60 0.50 0.46
0.03 0.04 0.07 0.10 0.14 0.33 0.56 0.47 0.25 0.20 0.13 0.07 0.10 0.23 0.34 0.19 0.16 0.23 0.13 0.16 0.13 0.19 0.32 0.32 0.31 0.30 0.31 0.31 0.19 0.12 0.14 0.23 0.15 0.14 0.07 0.13 0.18 0.10 0.08 0.09 0.10 0.13 0.09 0.10
0.06 0.06 0.08 0.11 0.15 0.28 0.47 0.36 0.29 0.21 0.21 0.12 0.14 0.10 0.05 0.05 0.07 0.05 0.06 0.13 0.15 0.12 0.09 0.11 0.18 0.23 0.30 0.42 0.53 0.48 0.29 0.23 0.25 0.20 0.08 0.17 0.32 0.07 0.02 0.02 0.02 0.03 0.09 0.04
0.10 0.12 0.16 0.16 0.18 0.20 0.16 0.15 0.15 0.25 0.19 0.11 0.07 0.04 0.03 0.02 0.01 0.02 0.00 0.01 0.04 0.02 0.01 0.04 0.07 0.11 0.09 0.10 0.15 0.39 0.57 0.30 0.26 0.19 0.16 0.32 0.09 0.02 0.02 0.04 0.05 0.06 0.05 0.02
0.14 0.13 0.15 0.20 0.21 0.23 0.09 0.07 0.12 0.17 0.16 0.05 0.03 0.02 0.01 0.00 0.00 0.01 0.06 0.05 0.02 0.01 0.05 0.16 0.14 0.13 0.15 0.07 0.02 0.05 0.23 0.43 0.41 0.20 0.16 0.10 0.02 0.00 0.00 0.01 0.01 0.01 0.01 0.03
0.16 0.18 0.15 0.16 0.20 0.28 0.22 0.07 0.05 0.11 0.15 0.10 0.03 0.04 0.07 0.11 0.13 0.12 0.05 0.00 0.00 0.06 0.17 0.28 0.16 0.07 0.10 0.10 0.07 0.06 0.08 0.31 0.69 0.53 0.27 0.11 0.01 0.00 0.00 0.00 0.00 0.00 0.00 0.00
0.13 0.10 0.15 0.15 0.22 0.33 0.39 0.19 0.05 0.07 0.09 0.04 0.02 0.10 0.14 0.18 0.09 0.05 0.01 0.02 0.05 0.11 0.23 0.27 0.27 0.22 0.16 0.16 0.16 0.18 0.25 0.39 0.55 0.54 0.50 0.20 0.02 0.00 0.00 0.03 0.01 0.00 0.00 0.00
0.11 0.09 0.10 0.16 0.22 0.40 0.50 0.19 0.09 0.06 0.05 0.01 0.00 0.00 0.00 0.01 0.04 0.01 0.01 0.01 0.03 0.03 0.08 0.20 0.20 0.18 0.14 0.10 0.08 0.17 0.41 0.43 0.42 0.42 0.50 0.43 0.20 0.08 0.06 0.05 0.00 0.00 0.00 0.00
0.13 0.13 0.12 0.17 0.27 0.45 0.51 0.31 0.16 0.13 0.07 0.02 0.00 0.00 0.00 0.00 0.00 0.00 0.01 0.01 0.01 0.03 0.04 0.04 0.03 0.05 0.07 0.06 0.05 0.02 0.20 0.25 0.39 0.44 0.64 0.58 0.50 0.35 0.13 0.06 0.03 0.00 0.00 0.00
0.09 0.08 0.07 0.20 0.35 0.44 0.32 0.23 0.23 0.16 0.09 0.00 0.00 0.00 0.00 0.00 0.00 0.00 0.01 0.01 0.00 0.01 0.01 0.01 0.01 0.00 0.00 0.00 0.00 0.00 0.01 0.01 0.01 0.04 0.14 0.16 0.41 0.30 0.17 0.09 0.03 0.02 0.00 0.00
0.04 0.05 0.06 0.23 0.53 0.49 0.24 0.21 0.17 0.05 0.00 0.00 0.00 0.00 0.00 0.00 0.00 0.00 0.00 0.01 0.00 0.00 0.00 0.00 0.00 0.00 0.00 0.00 0.00 0.00 0.00 0.00 0.00 0.00 0.01 0.00 0.02 0.01 0.02 0.03 0.05 0.03 0.02 0.00
0.06 0.07 0.12 0.36 0.77 0.62 0.24 0.11 0.02 0.00 0.00 0.00 0.00 0.00 0.00 0.00 0.00 0.00 0.00 0.00 0.00 0.00 0.00 0.00 0.00 0.00 0.00 0.00 0.00 0.00 0.00 0.00 0.00 0.00 0.00 0.00 0.00 0.00 0.07 0.06 0.05 0.03 0.03 0.01
0.13 0.12 0.17 0.50 0.72 0.50 0.12 0.08 0.06 0.03 0.00 0.00 0.00 0.00 0.00 0.00 0.00 0.00 0.00 0.00 0.00 0.00 0.00 0.00 0.00 0.00 0.00 0.00 0.00 0.00 0.00 0.00 0.00 0.00 0.00 0.00 0.00 0.00 0.04 0.06 0.04 0.03 0.04 0.00
0.09 0.13 0.29 0.41 0.38 0.18 0.05 0.02 0.06 0.02 0.01 0.02 0.00 0.00 0.00 0.00 0.00 0.00 0.00 0.00 0.00 0.01 0.01 0.00 0.00 0.00 0.01 0.00 0.00 0.00 0.00 0.00 0.00 0.00 0.00 0.00 0.00 0.00 0.00 0.00 0.00 0.00 0.01 0.00
0.05 0.09 0.15 0.14 0.08 0.02 0.01 0.03 0.07 0.08 0.08 0.02 0.00 0.00 0.00 0.00 0.00 0.00 0.00 0.00 0.00 0.01 0.01 0.00 0.00 0.00 0.01 0.02 0.00 0.00 0.00 0.00 0.00 0.00 0.00 0.00 0.00 0.00 0.00 0.00 0.00 0.00 0.00 0.00
0.04 0.02 0.01 0.00 0.00 0.01 0.06 0.06 0.04 0.02 0.05 0.02 0.00 0.00 0.00 0.00 0.00 0.00 0.00 0.00 0.01 0.01 0.00 0.00 0.00 0.00 0.01 0.00 0.00 0.00 0.00 0.00 0.00 0.00 0.00 0.00 0.00 0.00 0.00 0.00 0.00 0.00 0.00 0.00
0.00 0.00 0.00 0.01 0.02 0.06 0.04 0.01 0.03 0.03 0.02 0.00 0.00 0.00 0.00 0.00 0.00 0.00 0.00 0.00 0.00 0.00 0.00 0.00 0.00 0.00 0.01 0.03 0.07 0.05 0.02 0.01 0.01 0.02 0.00 0.00 0.00 0.00 0.00 0.00 0.00 0.00 0.00 0.00
0.00 0.00 0.01 0.02 0.01 0.01 0.00 0.00 0.00 0.00 0.00 0.00 0.00 0.00 0.00 0.00 0.00 0.00 0.00 0.00 0.00 0.01 0.00 0.01 0.02 0.04 0.13 0.29 0.47 0.29 0.10 0.03 0.01 0.01 0.00 0.00 0.00 0.00 0.01 0.00 0.00 0.00 0.00 0.00
0.00 0.00 0.00 0.01 0.01 0.00 0.00 0.00 0.00 0.00 0.00 0.00 0.00 0.00 0.00 0.00 0.00 0.01 0.02 0.02 0.01 0.00 0.01 0.07 0.11 0.15 0.31 0.37 0.38 0.13 0.03 0.00 0.00 0.00 0.01 0.00 0.00 0.01 0.01 0.01 0.01 0.00 0.01 0.01
0.00 0.00 0.00 0.00 0.00 0.00 0.00 0.00 0.00 0.00 0.00 0.00 0.00 0.01 0.00 0.01 0.05 0.11 0.06 0.03 0.02 0.02 0.07 0.19 0.27 0.29 0.19 0.10 0.10 0.12 0.03 0.01 0.00 0.01 0.10 0.04 0.00 0.01 0.04 0.01 0.00 0.00 0.00 0.01
0.00 0.00 0.00 0.00 0.00 0.00 0.00 0.00 0.00 0.00 0.00 0.00 0.02 0.03 0.01 0.02 0.08 0.07 0.08 0.02 0.03 0.10 0.29 0.32 0.27 0.06 0.16 0.07 0.05 0.06 0.07 0.04 0.01 0.00 0.07 0.17 0.06 0.04 0.10 0.03 0.01 0.00 0.00 0.00
0.00 0.00 0.00 0.00 0.00 0.00 0.00 0.00 0.00 0.00 0.00 0.05 0.17 0.12 0.11 0.08 0.09 0.06 0.04 0.05 0.18 0.36 0.10 0.07 0.01 0.00 0.04 0.08 0.02 0.04 0.04 0.03 0.06 0.08 0.20 0.27 0.16 0.08 0.09 0.13 0.05 0.01 0.00 0.00
0.00 0.00 0.00 0.00 0.00 0.00 0.00 0.00 0.00 0.01 0.04 0.09 0.16 0.12 0.11 0.07 0.03 0.07 0.04 0.12 0.43 0.29 0.04 0.01 0.00 0.00 0.00 0.00 0.01 0.01 0.04 0.04 0.02 0.03 0.07 0.11 0.10 0.09 0.04 0.02 0.03 0.02 0.01 0.00
0.00 0.00 0.00 0.00 0.00 0.00 0.00 0.00 0.00 0.00 0.01 0.05 0.08 0.12 0.14 0.26 0.24 0.46 0.24 0.35 0.53 0.20 0.06 0.00 0.00 0.00 0.00 0.00 0.00 0.00 0.00 0.00 0.00 0.00 0.00 0.00 0.00 0.00 0.01 0.01 0.01 0.00 0.00 0.00

GFSNW_prec_precacc12_195.txt.gz
Total_Precipitation_Accumulation
0.02 0.02 0.03 0.04 0.08 0.19 0.31 0.39 0.41 0.08 0.11 0.24 0.47 0.54 0.38 0.28 0.20 0.19 0.50 0.61 0.51 0.42 0.30 0.47 0.44 0.45 0.34 0.31 0.29 0.34 0.50 0.70 0.50 0.19 0.13 0.12 0.14 0.18 0.28 0.38 0.30 0.21 0.16 0.08
0.02 0.02 0.02 0.03 0.07 0.22 0.32 0.33 0.17 0.05 0.26 0.40 0.19 0.09 0.11 0.21 0.26 0.23 0.44 0.58 0.57 0.47 0.40 0.46 0.27 0.23 0.19 0.24 0.42 0.56 0.50 0.85 0.88 0.56 0.54 0.48 0.41 0.39 0.61 0.89 1.04 0.72 0.67 0.56
0.02 0.03 0.04 0.05 0.07 0.21 0.36 0.36 0.23 0.11 0.20 0.21 0.13 0.12 0.15 0.16 0.12 0.14 0.21 0.33 0.31 0.33 0.26 0.21 0.32 0.08 0.01 0.01 0.06 0.11 0.26 0.52 0.44 0.35 0.30 0.45 0.61 0.59 0.64 0.93 1.17 0.90 0.73 0.61
0.03 0.03 0.05 0.08 0.14 0.26 0.38 0.38 0.24 0.09 0.15 0.13 0.08 0.13 0.15 0.03 0.05 0.10 0.09 0.13 0.14 0.22 0.24 0.12 0.12 0.11 0.05 0.01 0.01 0.06 0.24 0.46 0.23 0.18 0.14 0.12 0.13 0.12 0.17 0.39 0.57 0.72 0.55 0.49
0.03 0.03 0.05 0.07 0.13 0.35 0.58 0.37 0.14 0.15 0.11 0.08 0.12 0.21 0.29 0.16 0.13 0.16 0.12 0.08 0.05 0.13 0.14 0.10 0.09 0.13 0.21 0.26 0.17 0.12 0.15 0.23 0.15 0.14 0.07 0.12 0.17 0.10 0.08 0.09 0.11 0.20 0.16 0.15
0.07 0.07 0.08 0.08 0.12 0.29 0.58 0.41 0.24 0.20 0.20 0.14 0.17 0.14 0.12 0.10 0.11 0.10 0.07 0.08 0.09 0.07 0.06 0.02 0.02 0.04 0.08 0.21 0.32 0.35 0.25 0.23 0.24 0.20 0.08 0.17 0.31 0.08 0.02 0.02 0.02 0.06 0.15 0.09
0.09 0.13 0.16 0.15 0.17 0.24 0.23 0.19 0.16 0.26 0.20 0.16 0.12 0.09 0.09 0.08 0.05 0.04 0.01 0.02 0.03 0.02 0.00 0.00 0.00 0.02 0.04 0.06 0.08 0.23 0.38 0.27 0.25 0.19 0.16 0.31 0.09 0.02 0.02 0.04 0.05 0.06 0.07 0.06
0.15 0.16 0.18 0.21 0.22 0.25 0.18 0.13 0.16 0.22 0.22 0.12 0.12 0.08 0.07 0.04 0.02 0.01 0.02 0.01 0.01 0.01 0.02 0.04 0.02 0.05 0.08 0.05 0.01 0.02 0.10 0.30 0.39 0.20 0.15 0.10 0.02 0.00 0.01 0.01 0.02 0.01 0.02 0.08
0.17 0.20 0.17 0.18 0.20 0.29 0.28 0.12 0.10 0.17 0.21 0.14 0.07 0.13 0.06 0.05 0.10 0.12 0.03 0.00 0.00 0.04 0.10 0.15 0.12 0.04 0.07 0.09 0.08 0.08 0.10 0.22 0.57 0.47 0.27 0.11 0.04 0.03 0.00 0.01 0.02 0.00 0.00 0.01
0.15 0.15 0.21 0.16 0.19 0.36 0.47 0.27 0.08 0.12 0.14 0.07 0.04 0.06 0.10 0.12 0.09 0.08 0.05 0.05 0.10 0.15 0.24 0.22 0.25 0.24 0.19 0.18 0.18 0.18 0.24 0.38 0.58 0.49 0.54 0.28 0.10 0.02 0.03 0.13 0.16 0.08 0.01 0.01
0.11 0.10 0.10 0.11 0.16 0.44 0.70 0.38 0.12 0.09 0.09 0.06 0.01 0.00 0.03 0.05 0.08 0.08 0.06 0.05 0.09 0.10 0.13 0.22 0.21 0.21 0.19 0.12 0.09 0.15 0.34 0.39 0.44 0.42 0.54 0.59 0.26 0.12 0.17 0.20 0.13 0.06 0.01 0.02
0.11 0.12 0.10 0.11 0.19 0.43 0.57 0.47 0.24 0.18 0.13 0.07 0.01 0.00 0.01 0.01 0.02 0.04 0.04 0.05 0.05 0.07 0.10 0.13 0.07 0.06 0.09 0.07 0.06 0.02 0.16 0.14 0.24 0.37 0.62 0.56 0.53 0.45 0.24 0.16 0.21 0.11 0.01 0.03
0.05 0.06 0.05 0.13 0.27 0.41 0.31 0.25 0.28 0.21 0.19 0.06 0.01 0.00 0.00 0.00 0.00 0.00 0.05 0.08 0.04 0.03 0.03 0.03 0.03 0.01 0.00 0.00 0.00 0.00 0.01 0.01 0.01 0.03 0.12 0.16 0.41 0.32 0.25 0.17 0.18 0.15 0.02 0.01
0.02 0.03 0.04 0.17 0.48 0.45 0.22 0.23 0.22 0.14 0.10 0.10 0.02 0.00 0.00 0.00 0.00 0.00 0.00 0.05 0.02 0.01 0.00 0.01 0.01 0.01 0.00 0.00 0.00 0.00 0.00 0.00 0.00 0.00 0.01 0.00 0.02 0.02 0.02 0.06 0.13 0.22 0.06 0.04
0.03 0.04 0.11 0.33 0.75 0.58 0.24 0.17 0.08 0.04 0.05 0.04 0.01 0.00 0.00 0.00 0.00 0.00 0.00 0.00 0.04 0.04 0.02 0.02 0.01 0.00 0.00 0.00 0.00 0.00 0.00 0.00 0.00 0.00 0.00 0.00 0.00 0.00 0.00 0.00 0.03 0.18 0.30 0.12
0.09 0.09 0.17 0.50 0.73 0.50 0.12 0.08 0.02 0.01 0.00 0.01 0.04 0.03 0.00 0.00 0.00 0.01 0.02 0.01 0.01 0.01 0.02 0.02 0.00 0.00 0.01 0.00 0.00 0.00 0.00 0.00 0.00 0.00 0.00 0.00 0.00 0.00 0.00 0.00 0.00 0.04 0.20 0.04
0.08 0.13 0.30 0.44 0.41 0.17 0.06 0.02 0.01 0.01 0.01 0.02 0.06 0.05 0.00 0.00 0.01 0.04 0.05 0.04 0.03 0.04 0.05 0.03 0.03 0.02 0.02 0.01 0.00 0.00 0.00 0.00 0.00 0.00 0.00 0.00 0.00 0.00 0.00 0.00 0.00 0.00 0.03 0.06
0.05 0.09 0.14 0.14 0.08 0.02 0.02 0.04 0.05 0.05 0.06 0.02 0.04 0.07 0.02 0.00 0.02 0.06 0.03 0.05 0.05 0.04 0.04 0.02 0.02 0.00 0.01 0.02 0.00 0.00 0.00 0.00 0.00 0.00 0.00 0.00 0.00 0.00 0.00 0.00 0.00 0.00 0.00 0.01
0.01 0.00 0.00 0.00 0.00 0.02 0.07 0.06 0.04 0.01 0.03 0.02 0.03 0.06 0.07 0.00 0.02 0.03 0.03 0.03 0.03 0.04 0.03 0.01 0.00 0.00 0.01 0.00 0.00 0.01 0.01 0.01 0.00 0.00 0.00 0.00 0.00 0.00 0.00 0.00 0.00 0.00 0.00 0.00
0.00 0.00 0.00 0.01 0.03 0.06 0.03 0.00 0.01 0.02 0.02 0.01 0.03 0.02 0.03 0.01 0.02 0.01 0.01 0.01 0.01 0.03 0.02 0.00 0.00 0.00 0.03 0.12 0.23 0.18 0.07 0.04 0.04 0.06 0.01 0.01 0.00 0.00 0.00 0.00 0.00 0.00 0.00 0.00
0.00 0.00 0.01 0.02 0.01 0.01 0.00 0.01 0.01 0.01 0.02 0.02 0.01 0.00 0.01 0.00 0.00 0.01 0.01 0.03 0.03 0.03 0.02 0.02 0.04 0.08 0.19 0.41 0.58 0.32 0.12 0.04 0.03 0.03 0.03 0.04 0.02 0.00 0.01 0.02 0.00 0.00 0.00 0.00
0.00 0.00 0.00 0.01 0.00 0.00 0.00 0.00 0.00 0.00 0.01 0.00 0.01 0.01 0.00 0.00 0.00 0.03 0.04 0.04 0.02 0.02 0.02 0.09 0.15 0.16 0.29 0.30 0.38 0.14 0.04 0.01 0.01 0.02 0.03 0.02 0.01 0.03 0.03 0.02 0.02 0.01 0.01 0.01
0.00 0.00 0.00 0.00 0.00 0.00 0.00 0.00 0.00 0.00 0.00 0.00 0.00 0.03 0.03 0.02 0.03 0.12 0.08 0.04 0.03 0.02 0.09 0.21 0.16 0.13 0.18 0.17 0.14 0.13 0.05 0.02 0.01 0.01 0.02 0.02 0.01 0.01 0.05 0.02 0.01 0.00 0.00 0.01
0.00 0.00 0.00 0.00 0.00 0.00 0.00 0.00 0.00 0.00 0.00 0.01 0.04 0.07 0.05 0.02 0.06 0.07 0.09 0.04 0.03 0.08 0.25 0.09 0.02 0.03 0.14 0.04 0.06 0.06 0.09 0.12 0.07 0.02 0.04 0.10 0.04 0.05 0.14 0.04 0.01 0.00 0.01 0.01
0.00 0.00 0.00 0.00 0.00 0.00 0.00 0.00 0.00 0.01 0.02 0.07 0.15 0.14 0.14 0.11 0.08 0.05 0.05 0.04 0.13 0.22 0.08 0.02 0.00 0.00 0.01 0.00 0.01 0.04 0.04 0.04 0.07 0.11 0.21 0.28 0.17 0.12 0.22 0.18 0.07 0.02 0.01 0.02
0.00 0.00 0.00 0.00 0.00 0.00 0.00 0.00 0.01 0.04 0.05 0.06 0.09 0.11 0.13 0.09 0.04 0.05 0.04 0.10 0.39 0.21 0.04 0.01 0.00 0.00 0.00 0.00 0.00 0.01 0.03 0.03 0.02 0.03 0.07 0.12 0.14 0.15 0.08 0.10 0.11 0.06 0.02 0.00
0.00 0.00 0.00 0.00 0.00 0.00 0.01 0.01 0.03 0.05 0.03 0.03 0.08 0.10 0.11 0.15 0.18 0.34 0.26 0.27 0.32 0.17 0.06 0.00 0.00 0.00 0.00 0.00 0.00 0.00 0.00 0.00 0.00 0.00 0.00 0.00 0.00 0.00 0.02 0.01 0.01 0.01 0.01 0.01

GFSNW_prec_precacc12_198.txt.gz
Total_Precipitation_Accumulation
0.03 0.02 0.02 0.02 0.04 0.06 0.08 0.15 0.16 0.06 0.11 0.24 0.33 0.31 0.18 0.13 0.10 0.14 0.34 0.43 0.44 0.41 0.28 0.45 0.44 0.45 0.36 0.34 0.32 0.44 0.55 0.77 0.57 0.22 0.14 0.14 0.23 0.41 0.62 0.83 0.74 0.58 0.56 0.31
0.03 0.03 0.03 0.03 0.05 0.09 0.11 0.16 0.07 0.04 0.20 0.27 0.16 0.07 0.05 0.09 0.13 0.14 0.27 0.34 0.34 0.34 0.31 0.34 0.17 0.17 0.14 0.20 0.37 0.51 0.41 0.72 0.73 0.44 0.41 0.42 0.41 0.39 0.62 0.94 1.11 0.71 0.64 0.43
0.02 0.03 0.04 0.06 0.08 0.14 0.11 0.17 0.12 0.07 0.16 0.09 0.09 0.09 0.10 0.09 0.05 0.07 0.14 0.23 0.22 0.23 0.16 0.16 0.19 0.04 0.01 0.01 0.04 0.09 0.23 0.40 0.36 0.34 0.30 0.47 0.58 0.53 0.53 0.74 1.04 0.86 0.71 0.59
0.02 0.03 0.04 0.07 0.14 0.27 0.20 0.20 0.14 0.08 0.15 0.12 0.07 0.12 0.11 0.04 0.05 0.08 0.08 0.11 0.10 0.13 0.11 0.06 0.05 0.03 0.02 0.01 0.01 0.05 0.22 0.41 0.19 0.13 0.09 0.05 0.08 0.07 0.11 0.31 0.50 0.69 0.55 0.50
0.03 0.04 0.06 0.05 0.11 0.36 0.44 0.22 0.10 0.11 0.08 0.08 0.15 0.24 0.25 0.15 0.13 0.16 0.12 0.08 0.06 0.12 0.10 0.05 0.02 0.02 0.03 0.04 0.01 0.05 0.16 0.22 0.11 0.11 0.03 0.02 0.05 0.02 0.02 0.04 0.08 0.18 0.16 0.14
0.04 0.06 0.08 0.08 0.10 0.31 0.50 0.36 0.21 0.23 0.18 0.11 0.17 0.16 0.15 0.12 0.15 0.13 0.10 0.13 0.17 0.15 0.12 0.12 0.11 0.05 0.02 0.01 0.02 0.03 0.12 0.20 0.21 0.18 0.08 0.15 0.25 0.07 0.02 0.02 0.02 0.05 0.15 0.09
0.09 0.12 0.16 0.16 0.16 0.26 0.23 0.18 0.21 0.36 0.22 0.15 0.12 0.11 0.11 0.11 0.09 0.10 0.05 0.06 0.05 0.04 0.01 0.01 0.01 0.00 0.00 0.00 0.00 0.03 0.06 0.08 0.17 0.15 0.12 0.24 0.09 0.02 0.02 0.04 0.05 0.06 0.07 0.06
0.15 0.19 0.21 0.23 0.23 0.26 0.23 0.19 0.21 0.27 0.23 0.15 0.14 0.09 0.10 0.12 0.11 0.06 0.03 0.02 0.02 0.01 0.02 0.03 0.01 0.00 0.00 0.00 0.00 0.00 0.01 0.11 0.23 0.16 0.13 0.09 0.02 0.00 0.01 0.02 0.02 0.01 0.02 0.08
0.18 0.24 0.20 0.20 0.22 0.27 0.30 0.17 0.17 0.26 0.29 0.17 0.10 0.20 0.22 0.12 0.12 0.11 0.04 0.01 0.00 0.02 0.06 0.11 0.08 0.02 0.03 0.06 0.07 0.08 0.11 0.19 0.39 0.29 0.23 0.10 0.05 0.03 0.00 0.03 0.04 0.01 0.01 0.03
0.14 0.17 0.23 0.17 0.21 0.33 0.47 0.33 0.13 0.24 0.19 0.10 0.09 0.11 0.14 0.13 0.11 0.08 0.08 0.07 0.11 0.13 0.21 0.19 0.17 0.19 0.18 0.17 0.16 0.18 0.23 0.36 0.60 0.46 0.48 0.29 0.13 0.02 0.03 0.17 0.19 0.15 0.13 0.12
0.11 0.10 0.12 0.17 0.25 0.39 0.64 0.45 0.17 0.17 0.19 0.09 0.05 0.03 0.06 0.13 0.13 0.15 0.15 0.09 0.13 0.16 0.17 0.22 0.21 0.26 0.27 0.17 0.14 0.12 0.25 0.32 0.47 0.40 0.55 0.64 0.24 0.11 0.20 0.25 0.13 0.09 0.06 0.13
0.10 0.11 0.09 0.09 0.12 0.25 0.47 0.54 0.42 0.25 0.21 0.10 0.04 0.01 0.01 0.05 0.07 0.10 0.10 0.13 0.12 0.14 0.15 0.23 0.13 0.09 0.08 0.04 0.07 0.02 0.09 0.07 0.14 0.27 0.49 0.39 0.47 0.43 0.23 0.17 0.21 0.15 0.06 0.15
0.04 0.03 0.03 0.07 0.12 0.27 0.32 0.32 0.43 0.37 0.24 0.08 0.01 0.00 0.00 0.00 0.00 0.00 0.05 0.12 0.10 0.09 0.05 0.05 0.04 0.02 0.01 0.00 0.01 0.00 0.00 0.00 0.01 0.03 0.09 0.08 0.31 0.31 0.25 0.17 0.19 0.17 0.07 0.04
0.00 0.00 0.01 0.07 0.19 0.35 0.21 0.23 0.24 0.16 0.12 0.15 0.09 0.00 0.00 0.00 0.00 0.00 0.00 0.06 0.04 0.04 0.01 0.01 0.02 0.01 0.00 0.00 0.00 0.00 0.00 0.00 0.00 0.00 0.00 0.00 0.02 0.02 0.02 0.06 0.13 0.25 0.12 0.11
0.02 0.03 0.08 0.19 0.57 0.44 0.23 0.17 0.09 0.06 0.17 0.24 0.11 0.00 0.00 0.00 0.00 0.00 0.00 0.01 0.05 0.07 0.06 0.04 0.02 0.00 0.00 0.00 0.00 0.00 0.00 0.00 0.01 0.00 0.00 0.00 0.00 0.00 0.00 0.00 0.03 0.19 0.38 0.27
0.07 0.08 0.14 0.37 0.57 0.36 0.11 0.06 0.02 0.01 0.02 0.05 0.11 0.05 0.00 0.00 0.00 0.02 0.04 0.04 0.02 0.02 0.04 0.05 0.01 0.00 0.03 0.02 0.01 0.00 0.00 0.00 0.00 0.00 0.00 0.00 0.00 0.00 0.00 0.00 0.00 0.02 0.24 0.19
0.05 0.11 0.26 0.36 0.28 0.09 0.03 0.03 0.02 0.01 0.02 0.05 0.13 0.14 0.02 0.00 0.02 0.08 0.09 0.08 0.06 0.09 0.10 0.05 0.03 0.02 0.05 0.06 0.03 0.00 0.00 0.00 0.00 0.00 0.00 0.00 0.00 0.00 0.00 0.00 0.00 0.00 0.03 0.08
0.03 0.08 0.13 0.13 0.06 0.01 0.03 0.04 0.02 0.02 0.05 0.05 0.09 0.15 0.05 0.00 0.05 0.13 0.08 0.12 0.11 0.08 0.07 0.04 0.02 0.01 0.03 0.04 0.01 0.00 0.00 0.00 0.00 0.00 0.00 0.00 0.00 0.00 0.00 0.00 0.00 0.00 0.00 0.02
0.00 0.00 0.00 0.00 0.01 0.02 0.07 0.04 0.01 0.01 0.03 0.03 0.06 0.12 0.20 0.03 0.06 0.06 0.05 0.05 0.05 0.05 0.06 0.04 0.01 0.01 0.01 0.01 0.01 0.02 0.01 0.02 0.02 0.01 0.00 0.00 0.00 0.00 0.00 0.00 0.00 0.00 0.00 0.00
0.00 0.01 0.02 0.01 0.03 0.04 0.02 0.01 0.02 0.03 0.04 0.06 0.07 0.07 0.10 0.03 0.06 0.03 0.02 0.02 0.02 0.04 0.04 0.02 0.01 0.02 0.04 0.15 0.29 0.24 0.10 0.06 0.07 0.08 0.03 0.02 0.01 0.01 0.00 0.00 0.00 0.00 0.00 0.00
0.01 0.04 0.02 0.02 0.01 0.01 0.01 0.01 0.02 0.03 0.04 0.04 0.02 0.02 0.05 0.03 0.00 0.03 0.02 0.05 0.05 0.07 0.05 0.03 0.06 0.17 0.16 0.39 0.53 0.31 0.13 0.05 0.06 0.05 0.05 0.06 0.05 0.04 0.03 0.01 0.01 0.00 0.00 0.02
0.00 0.00 0.00 0.01 0.00 0.01 0.02 0.01 0.01 0.01 0.03 0.01 0.02 0.03 0.00 0.01 0.00 0.03 0.06 0.06 0.04 0.03 0.02 0.09 0.23 0.18 0.25 0.26 0.28 0.09 0.05 0.01 0.03 0.04 0.07 0.06 0.06 0.07 0.07 0.06 0.05 0.05 0.03 0.02
0.01 0.01 0.01 0.01 0.01 0.00 0.01 0.01 0.01 0.02 0.00 0.00 0.01 0.06 0.07 0.04 0.03 0.11 0.10 0.05 0.05 0.03 0.09 0.17 0.12 0.08 0.10 0.14 0.14 0.13 0.08 0.03 0.01 0.02 0.02 0.03 0.01 0.01 0.04 0.01 0.01 0.01 0.02 0.02
0.01 0.01 0.00 0.00 0.00 0.00 0.00 0.00 0.03 0.04 0.01 0.03 0.07 0.11 0.10 0.06 0.08 0.08 0.09 0.06 0.03 0.07 0.15 0.07 0.03 0.01 0.02 0.03 0.06 0.06 0.08 0.12 0.08 0.04 0.01 0.01 0.01 0.05 0.14 0.05 0.02 0.00 0.01 0.01
0.00 0.00 0.00 0.00 0.00 0.00 0.00 0.00 0.00 0.02 0.05 0.09 0.14 0.16 0.16 0.15 0.09 0.05 0.05 0.05 0.07 0.12 0.14 0.06 0.01 0.00 0.00 0.00 0.01 0.05 0.05 0.04 0.07 0.08 0.11 0.13 0.10 0.17 0.31 0.23 0.10 0.04 0.03 0.02
0.00 0.00 0.00 0.01 0.02 0.02 0.02 0.01 0.01 0.06 0.09 0.06 0.06 0.09 0.13 0.11 0.06 0.07 0.04 0.08 0.25 0.24 0.06 0.01 0.00 0.00 0.00 0.00 0.00 0.01 0.04 0.03 0.02 0.03 0.07 0.13 0.15 0.17 0.12 0.16 0.16 0.08 0.04 0.02
0.00 0.00 0.01 0.02 0.02 0.02 0.02 0.02 0.04 0.09 0.10 0.07 0.07 0.11 0.13 0.12 0.14 0.24 0.23 0.18 0.14 0.10 0.04 0.00 0.00 0.00 0.00 0.00 0.00 0.00 0.00 0.00 0.00 0.00 0.00 0.00 0.00 0.00 0.02 0.01 0.03 0.04 0.02 0.02

GFSNW_prec_precacc12_204.txt.gz
Total_Precipitation_Accumulation
0.03 0.03 0.04 0.06 0.07 0.04 0.02 0.03 0.03 0.06 0.13 0.12 0.09 0.10 0.05 0.05 0.03 0.05 0.15 0.15 0.15 0.15 0.07 0.19 0.24 0.24 0.13 0.10 0.11 0.31 0.33 0.48 0.28 0.06 0.05 0.13 0.31 0.62 0.79 1.12 1.14 0.92 0.89 0.45
0.02 0.03 0.03 0.04 0.06 0.06 0.05 0.07 0.02 0.07 0.27 0.10 0.05 0.02 0.02 0.05 0.05 0.07 0.14 0.14 0.11 0.09 0.10 0.16 0.07 0.07 0.04 0.03 0.03 0.11 0.12 0.31 0.27 0.04 0.02 0.17 0.34 0.44 0.69 1.03 1.26 0.86 0.81 0.44
0.02 0.03 0.04 0.05 0.09 0.12 0.13 0.10 0.05 0.05 0.11 0.04 0.04 0.04 0.05 0.05 0.02 0.03 0.07 0.10 0.11 0.11 0.07 0.09 0.06 0.02 0.02 0.09 0.10 0.09 0.15 0.14 0.09 0.08 0.02 0.09 0.06 0.05 0.11 0.29 0.54 0.48 0.42 0.34
0.04 0.05 0.05 0.05 0.11 0.21 0.24 0.14 0.05 0.03 0.09 0.05 0.04 0.05 0.03 0.01 0.03 0.06 0.07 0.11 0.08 0.12 0.11 0.08 0.04 0.02 0.03 0.03 0.07 0.11 0.20 0.13 0.01 0.00 0.00 0.00 0.00 0.01 0.02 0.07 0.11 0.18 0.08 0.05
0.04 0.05 0.07 0.10 0.19 0.31 0.34 0.17 0.04 0.06 0.04 0.03 0.08 0.14 0.08 0.05 0.05 0.10 0.08 0.08 0.05 0.13 0.12 0.10 0.04 0.03 0.04 0.05 0.05 0.10 0.15 0.18 0.05 0.05 0.00 0.00 0.01 0.00 0.00 0.01 0.03 0.09 0.09 0.05
0.04 0.07 0.09 0.08 0.13 0.35 0.43 0.19 0.09 0.22 0.11 0.08 0.10 0.08 0.11 0.09 0.13 0.11 0.11 0.15 0.19 0.15 0.12 0.12 0.12 0.08 0.05 0.03 0.03 0.05 0.10 0.15 0.10 0.08 0.00 0.01 0.01 0.00 0.00 0.00 0.00 0.03 0.07 0.05
0.05 0.10 0.13 0.15 0.14 0.31 0.31 0.14 0.12 0.27 0.18 0.09 0.08 0.08 0.10 0.11 0.11 0.14 0.06 0.10 0.10 0.10 0.06 0.04 0.01 0.01 0.01 0.03 0.04 0.08 0.12 0.11 0.08 0.04 0.01 0.02 0.00 0.00 0.00 0.00 0.00 0.00 0.02 0.04
0.07 0.12 0.17 0.20 0.21 0.28 0.37 0.23 0.21 0.19 0.11 0.13 0.14 0.13 0.14 0.14 0.13 0.08 0.05 0.05 0.06 0.08 0.08 0.08 0.04 0.00 0.00 0.00 0.00 0.01 0.02 0.07 0.15 0.07 0.01 0.00 0.00 0.00 0.01 0.01 0.01 0.00 0.00 0.05
0.07 0.13 0.16 0.20 0.24 0.31 0.38 0.21 0.20 0.39 0.23 0.10 0.09 0.21 0.25 0.16 0.12 0.12 0.07 0.01 0.02 0.06 0.09 0.13 0.04 0.00 0.00 0.00 0.01 0.02 0.08 0.13 0.19 0.13 0.12 0.03 0.04 0.03 0.00 0.03 0.05 0.01 0.01 0.03
0.08 0.12 0.17 0.14 0.22 0.39 0.44 0.38 0.14 0.53 0.43 0.08 0.11 0.15 0.20 0.18 0.20 0.21 0.16 0.12 0.12 0.15 0.17 0.12 0.06 0.05 0.05 0.07 0.08 0.06 0.06 0.14 0.37 0.37 0.44 0.31 0.18 0.03 0.03 0.19 0.21 0.15 0.13 0.12
0.04 0.05 0.09 0.13 0.20 0.39 0.58 0.51 0.20 0.23 0.34 0.12 0.07 0.06 0.09 0.17 0.24 0.35 0.45 0.35 0.23 0.24 0.21 0.15 0.17 0.20 0.27 0.13 0.16 0.18 0.15 0.10 0.22 0.15 0.31 0.47 0.11 0.05 0.15 0.21 0.13 0.09 0.06 0.13
0.02 0.02 0.05 0.07 0.06 0.24 0.43 0.51 0.42 0.27 0.20 0.16 0.07 0.02 0.02 0.07 0.19 0.26 0.18 0.22 0.26 0.33 0.21 0.26 0.13 0.12 0.18 0.15 0.15 0.11 0.14 0.05 0.02 0.02 0.05 0.02 0.04 0.11 0.11 0.12 0.19 0.14 0.06 0.16
0.01 0.01 0.02 0.04 0.06 0.13 0.13 0.27 0.27 0.44 0.26 0.10 0.02 0.00 0.00 0.00 0.02 0.04 0.07 0.13 0.13 0.14 0.08 0.06 0.04 0.02 0.01 0.01 0.02 0.01 0.00 0.00 0.00 0.00 0.00 0.00 0.01 0.03 0.08 0.09 0.16 0.15 0.07 0.07
0.02 0.01 0.00 0.01 0.04 0.05 0.01 0.02 0.08 0.16 0.21 0.16 0.09 0.01 0.01 0.00 0.02 0.00 0.02 0.06 0.04 0.04 0.02 0.03 0.02 0.01 0.00 0.00 0.00 0.00 0.00 0.00 0.00 0.00 0.00 0.00 0.00 0.00 0.00 0.03 0.09 0.22 0.10 0.13
0.02 0.04 0.04 0.04 0.06 0.05 0.06 0.08 0.08 0.08 0.20 0.44 0.29 0.01 0.00 0.00 0.00 0.00 0.01 0.01 0.05 0.07 0.07 0.06 0.03 0.00 0.01 0.00 0.00 0.00 0.00 0.01 0.01 0.00 0.00 0.00 0.00 0.00 0.00 0.00 0.02 0.17 0.34 0.28
0.02 0.03 0.06 0.09 0.10 0.16 0.11 0.06 0.03 0.01 0.03 0.08 0.16 0.09 0.03 0.00 0.00 0.02 0.04 0.05 0.03 0.04 0.05 0.06 0.01 0.01 0.06 0.03 0.01 0.00 0.00 0.00 0.00 0.00 0.00 0.00 0.00 0.00 0.00 0.00 0.00 0.01 0.21 0.20
0.03 0.04 0.04 0.06 0.04 0.03 0.03 0.04 0.03 0.00 0.04 0.09 0.14 0.20 0.07 0.01 0.03 0.09 0.12 0.13 0.14 0.16 0.13 0.05 0.03 0.02 0.07 0.07 0.03 0.02 0.00 0.00 0.00 0.00 0.00 0.00 0.00 0.00 0.00 0.00 0.00 0.00 0.02 0.09
0.02 0.02 0.02 0.01 0.00 0.01 0.03 0.01 0.00 0.01 0.07 0.09 0.12 0.19 0.09 0.04 0.07 0.17 0.16 0.22 0.17 0.10 0.09 0.04 0.03 0.01 0.04 0.04 0.01 0.00 0.00 0.00 0.00 0.00 0.00 0.00 0.00 0.00 0.00 0.00 0.00 0.00 0.00 0.02
0.00 0.00 0.00 0.00 0.01 0.01 0.02 0.00 0.00 0.01 0.05 0.04 0.07 0.16 0.28 0.09 0.09 0.13 0.08 0.05 0.05 0.05 0.06 0.05 0.03 0.02 0.05 0.03 0.01 0.02 0.01 0.02 0.03 0.02 0.00 0.00 0.00 0.00 0.00 0.00 0.00 0.00 0.00 0.00
0.00 0.02 0.03 0.01 0.02 0.00 0.00 0.01 0.02 0.03 0.06 0.08 0.07 0.10 0.17 0.07 0.13 0.07 0.03 0.02 0.01 0.04 0.05 0.04 0.02 0.04 0.04 0.13 0.23 0.20 0.08 0.05 0.07 0.09 0.05 0.04 0.02 0.02 0.02 0.01 0.00 0.00 0.00 0.00
0.01 0.05 0.03 0.01 0.00 0.01 0.01 0.01 0.02 0.06 0.08 0.10 0.08 0.06 0.09 0.05 0.01 0.03 0.02 0.04 0.05 0.07 0.08 0.03 0.07 0.28 0.09 0.16 0.14 0.06 0.03 0.02 0.05 0.06 0.07 0.08 0.07 0.07 0.03 0.02 0.02 0.00 0.00 0.02
0.00 0.01 0.01 0.00 0.01 0.01 0.02 0.02 0.01 0.02 0.06 0.04 0.04 0.05 0.01 0.02 0.00 0.02 0.04 0.04 0.03 0.03 0.02 0.05 0.26 0.14 0.06 0.08 0.07 0.03 0.02 0.01 0.03 0.05 0.08 0.07 0.08 0.08 0.08 0.07 0.06 0.06 0.02 0.03
0.02 0.04 0.03 0.01 0.01 0.01 0.01 0.02 0.02 0.04 0.03 0.02 0.03 0.07 0.09 0.05 0.03 0.07 0.07 0.03 0.04 0.02 0.05 0.11 0.19 0.02 0.01 0.07 0.04 0.02 0.06 0.03 0.01 0.02 0.03 0.03 0.01 0.00 0.01 0.01 0.00 0.01 0.02 0.02
0.02 0.03 0.01 0.00 0.01 0.00 0.01 0.01 0.05 0.07 0.04 0.04 0.06 0.11 0.11 0.10 0.08 0.06 0.05 0.05 0.02 0.03 0.06 0.12 0.05 0.00 0.00 0.00 0.02 0.01 0.02 0.09 0.07 0.05 0.01 0.01 0.01 0.02 0.06 0.02 0.01 0.00 0.01 0.01
0.00 0.01 0.01 0.00 0.01 0.01 0.01 0.01 0.01 0.02 0.06 0.10 0.12 0.12 0.12 0.16 0.09 0.03 0.03 0.04 0.02 0.05 0.16 0.17 0.03 0.00 0.00 0.00 0.00 0.00 0.00 0.01 0.01 0.04 0.04 0.03 0.04 0.14 0.26 0.13 0.10 0.07 0.04 0.03
0.00 0.00 0.00 0.02 0.03 0.04 0.04 0.02 0.01 0.06 0.10 0.08 0.06 0.06 0.10 0.11 0.05 0.05 0.03 0.04 0.11 0.19 0.08 0.06 0.05 0.00 0.00 0.00 0.00 0.00 0.00 0.00 0.00 0.00 0.01 0.03 0.06 0.09 0.11 0.17 0.18 0.11 0.06 0.04
0.00 0.00 0.02 0.04 0.04 0.03 0.03 0.03 0.04 0.10 0.12 0.15 0.19 0.20 0.10 0.13 0.14 0.12 0.18 0.18 0.12 0.03 0.01 0.00 0.00 0.00 0.00 0.00 0.00 0.00 0.00 0.00 0.00 0.01 0.01 0.00 0.00 0.00 0.01 0.01 0.04 0.08 0.07 0.06